COSMOS 1275 DEB, 27797

Orbit data source: Space-Track

COSMOS 1275 DEB, 27797 is space debris in LEO originally from a launch on Thu, 04 Jun 1981 UTC launched from the Plesetsk Missile And Space Complex (PKMTR). Debris objects in space refer to the collection of defunct objects orbiting the Earth. Examples of debris include non-operational satellites, rocket bodies, and fragments generated from explosions, collisions, or faulty payload assembly.

Loading next visibility...
Identifier
27797, 1981-053MR
Orbit
LEO
Country
Flag of CISCIS
Related business
Manufacturer
Unknown
Mission
Spacecraft
Bus & Motor
Unknown
Mass
Unknown
Launch date (UTC)
1981-06-04 (45 years ago)
Launch vehicle
Unknown
Launch site
Plesetsk Missile And Space Complex (PKMTR)
Object type
Payload
Rocket body
Debris
Shape & HBR
Unknown shape, 0.1 m
Radar Cross Section
Small (<0.1 m²)

Expand to show TLE details & history
Last TLE update: 1 week ago

TLE from 1 week ago
0 COSMOS 1275 DEB
1 27797U 81053MR  26141.71447056  .00000739  00000-0  95629-3 0  9990
2 27797  83.1384 125.5604 0186681 180.4322 301.4243 13.54016472634603
Epoch: 2026-05-21T17:08Z
TLE epoch observation values (Epoch: 2026-05-21T17:08:50.256Z)
Latitude
59.38214°
Longitude
157.32548°
Altitude
997.118 km
Speed
7.394 km/s
True Right ascension
19h 35m 33s
True Declination
59° 14' 10"
Sunlit
Object was in daylight at epoch
Visualization orbit readout
Latitude
Unknown
Longitude
Unknown
Altitude
Unknown
Speed
Unknown
Apparent Right ascension
Unknown
Apparent Declination
Unknown
Sunlit
N/A
Visualization observer readout
Local Sidereal Time
07:42:05
Azimuth
Unknown
Elevation
Unknown
Doppler factor
Unknown
Orbital elements
Apogee altitude
1,193.444 km
Perigee altitude
915.93 km
Semi-major axis
7,432.824 km
Eccentricity
0.01867
Inclination
83.1384°
RAAN
125.5604°
Arg. of periapsis
180.4322°
True anomaly
299.5767°
Mean anomaly
301.4243°
Eccentric anomaly
300.50272°
Mean motion
3.38698 °/min
Orbital period
106.29 mins
BSTAR
0.00095629
Loading maneuver chart data...
Computing Atmospheric mass density...

Documentation

Showing up to 5 results
|